EW4498 Weather Reports


time (UTC)temp
C
wind
direction
speed
KPH
gust
KPH
rain 1hr
cm
rain 24hr
cm
rain mn
cm
humidity
%
barometer
mb
20260503231552 12 249 0.0 3.2 0.15 0.81 0.18 91 1006.2
20260503230140 12 249 0.0 1.6 0.18 0.81 0.18 91 1006.5
20260503224557 12 249 0.0 0.0 0.20 0.81 0.18 91 1006.8
20260503223153 12 249 0.0 0.0 0.15 0.71 0.10 91 1007.0
20260503221544 12 249 0.0 1.6 0.13 0.69 0.05 90 1007.2
20260503220051 12 249 0.0 0.0 0.13 0.64 0.00 90 1007.2
20260503214512 12 249 0.0 0.0 0.36 0.61 0.61 90 1007.6
20260503213056 12 249 0.0 0.0 0.41 0.58 0.58 90 1007.7
20260503211534 12 249 0.0 1.6 0.41 0.56 0.56 89 1007.8
20260503210034 12 261 0.0 4.8 0.36 0.51 0.51 89 1008.0
20260503204501 12 23 0.0 3.2 0.18 0.23 0.23 88 1007.4
20260503203055 12 53 1.6 4.8 0.15 0.18 0.18 87 1007.5
20260503201520 13 53 4.8 9.7 0.15 0.15 0.15 86 1007.1
20260503200143 13 42 1.6 4.8 0.13 0.15 0.15 84 1007.7
20260503194545 13 265 0.0 4.8 0.05 0.05 0.05 82 1008.5
20260503193139 14 337 0.0 3.2 0.03 0.05 0.05 78 1008.1
20260503191545 14 33 1.6 6.4 0.00 0.03 0.03 75 1007.8
20260503190150 14 52 0.0 3.2 0.00 0.03 0.03 74 1007.7
20260503184551 15 38 0.0 6.4 0.00 0.03 0.03 74 1007.5
20260503183147 15 43 3.2 6.4 0.00 0.03 0.03 73 1007.5
20260503181548 15 61 1.6 4.8 0.00 0.03 0.03 73 1007.5
20260503180038 15 55 1.6 6.4 0.00 0.03 0.03 72 1007.7
20260503174527 15 50 4.8 8.0 0.00 0.03 0.03 71 1007.7
20260503173025 16 71 1.6 8.0 0.00 0.03 0.03 72 1007.9
20260503171533 16 79 3.2 6.4 0.00 0.03 0.03 71 1008.1
20260503081536 13 217 0.0 8.0 0.00 0.00 0.00 80 1011.7
20260503071517 12 275 0.0 8.0 0.00 0.00 0.00 84 1011.6
20260503054509 11 319 4.8 9.7 0.00 0.00 0.00 87 1011.3
20260503053010 11 317 1.6 11.3 0.00 0.00 0.00 86 1011.2
20260503051506 11 304 0.0 6.4 0.00 0.00 0.00 85 1011.1
20260503050007 11 233 0.0 8.0 0.00 0.00 0.00 84 1011.1
20260503044508 11 277 0.0 0.0 0.00 0.00 0.00 82 1010.8
20260503043002 10 254 0.0 0.0 0.00 0.00 0.00 83 1011.0
20260503041600 10 248 0.0 0.0 0.00 0.00 0.00 86 1011.0
20260503040056 9 248 0.0 0.0 0.00 0.00 0.00 85 1011.2
20260503034554 9 248 0.0 0.0 0.00 0.00 0.00 85 1011.3
20260503033052 9 250 0.0 0.0 0.00 0.00 0.00 83 1010.9
20260503031551 9 251 0.0 0.0 0.00 0.00 0.00 84 1011.2
20260503030051 8 254 0.0 0.0 0.00 0.00 0.00 85 1011.2
20260503024552 8 259 0.0 0.0 0.00 0.00 0.00 82 1011.4
20260503023048 8 259 0.0 0.0 0.00 0.00 0.00 82 1011.4
20260503021551 8 259 0.0 0.0 0.00 0.00 0.00 82 1011.5
20260503020052 8 259 0.0 0.0 0.00 0.00 0.00 80 1011.4
20260503014607 8 259 0.0 0.0 0.00 0.00 0.00 79 1011.5
20260503013041 9 259 0.0 0.0 0.00 0.00 0.00 79 1011.4
20260503011545 10 259 0.0 0.0 0.00 0.00 0.00 77 1011.5
20260503004533 11 259 0.0 0.0 0.00 0.00 0.00 75 1011.5
20260503003026 11 259 0.0 0.0 0.00 0.00 0.00 72 1011.5
20260503001525 12 259 0.0 0.0 0.00 0.00 0.00 69 1011.6
20260503000019 13 259 0.0 0.0 0.00 0.00 0.00 65 1011.8
20260502234515 13 259 0.0 0.0 0.00 0.00 0.00 63 1011.9
20260502233013 14 259 0.0 0.0 0.00 0.00 0.00 60 1012.1